Year,Month,Day,Hour,Minute,Value (Times are PST for windspeed in km/hr)
2010,06,02,00,00,12.50
2010,06,02,00,01,12.00
2010,06,02,00,02,14.60
2010,06,02,00,03,11.40
2010,06,02,00,04,11.50
2010,06,02,00,05,11.20
2010,06,02,00,06,11.50
2010,06,02,00,07,10.20
2010,06,02,00,08,10.30
2010,06,02,00,09,11.10
2010,06,02,00,10,12.60
2010,06,02,00,11,7.00
2010,06,02,00,12,10.00
2010,06,02,00,13,6.90
2010,06,02,00,14,9.50
2010,06,02,00,15,8.50
2010,06,02,00,16,7.40
2010,06,02,00,17,6.50
2010,06,02,00,18,10.10
2010,06,02,00,19,7.20
2010,06,02,00,20,11.90
2010,06,02,00,21,9.70
2010,06,02,00,22,10.60
2010,06,02,00,23,8.10
2010,06,02,00,24,5.90
2010,06,02,00,25,4.40
2010,06,02,00,26,6.60
2010,06,02,00,27,9.70
2010,06,02,00,28,9.80
2010,06,02,00,29,9.70
2010,06,02,00,30,7.10
2010,06,02,00,31,8.40
2010,06,02,00,32,9.10
2010,06,02,00,33,7.40
2010,06,02,00,34,4.40
2010,06,02,00,35,9.60
2010,06,02,00,36,8.40
2010,06,02,00,37,8.70
2010,06,02,00,38,5.50
2010,06,02,00,39,7.00
2010,06,02,00,40,6.10
2010,06,02,00,41,9.50
2010,06,02,00,42,8.50
2010,06,02,00,43,8.80
2010,06,02,00,44,6.40
2010,06,02,00,45,7.60
2010,06,02,00,46,6.00
2010,06,02,00,47,12.30
2010,06,02,00,48,8.20
2010,06,02,00,49,7.00
2010,06,02,00,50,6.10
2010,06,02,00,51,10.20
2010,06,02,00,52,7.40
2010,06,02,00,53,5.40
2010,06,02,00,54,7.20
2010,06,02,00,55,9.00
2010,06,02,00,56,5.80
2010,06,02,00,57,6.00
2010,06,02,00,58,6.90
2010,06,02,00,59,4.70
2010,06,02,01,00,8.30
2010,06,02,01,01,5.30
2010,06,02,01,02,6.60
2010,06,02,01,03,6.90
2010,06,02,01,04,6.80
2010,06,02,01,05,6.90
2010,06,02,01,06,5.60
2010,06,02,01,07,4.60
2010,06,02,01,08,5.20
2010,06,02,01,09,8.20
2010,06,02,01,10,7.50
2010,06,02,01,11,11.60
2010,06,02,01,12,7.60
2010,06,02,01,13,4.20
2010,06,02,01,14,6.30
2010,06,02,01,15,7.40
2010,06,02,01,16,5.50
2010,06,02,01,17,10.00
2010,06,02,01,18,5.90
2010,06,02,01,19,7.00
2010,06,02,01,20,5.20
2010,06,02,01,21,5.50
2010,06,02,01,22,6.00
2010,06,02,01,23,2.50
2010,06,02,01,24,6.00
2010,06,02,01,25,6.80
2010,06,02,01,26,6.80
2010,06,02,01,27,5.40
2010,06,02,01,28,4.80
2010,06,02,01,29,7.60
2010,06,02,01,30,6.40
2010,06,02,01,31,8.40
2010,06,02,01,32,6.00
2010,06,02,01,33,6.70
2010,06,02,01,34,7.70
2010,06,02,01,35,6.90
2010,06,02,01,36,8.70
2010,06,02,01,37,5.80
2010,06,02,01,38,8.00
2010,06,02,01,39,6.20
2010,06,02,01,40,5.40
2010,06,02,01,41,7.40
2010,06,02,01,42,9.20
2010,06,02,01,43,6.40
2010,06,02,01,44,8.80
2010,06,02,01,45,3.40
2010,06,02,01,46,3.90
2010,06,02,01,47,4.50
2010,06,02,01,48,5.60
2010,06,02,01,49,8.10
2010,06,02,01,50,5.30
2010,06,02,01,51,8.40
2010,06,02,01,52,8.80
2010,06,02,01,53,6.60
2010,06,02,01,54,6.60
2010,06,02,01,55,8.10
2010,06,02,01,56,5.50
2010,06,02,01,57,5.30
2010,06,02,01,58,8.20
2010,06,02,01,59,8.80
2010,06,02,02,00,8.90
2010,06,02,02,01,7.00
2010,06,02,02,02,7.20
2010,06,02,02,03,6.70
2010,06,02,02,04,6.70
2010,06,02,02,05,6.60
2010,06,02,02,06,6.80
2010,06,02,02,07,4.70
2010,06,02,02,08,4.70
2010,06,02,02,09,6.00
2010,06,02,02,10,5.80
2010,06,02,02,11,6.60
2010,06,02,02,12,4.80
2010,06,02,02,13,2.50
2010,06,02,02,14,2.20
2010,06,02,02,15,2.40
2010,06,02,02,16,1.80
2010,06,02,02,17,0.10
2010,06,02,02,18,0.00
2010,06,02,02,19,0.00
2010,06,02,02,20,2.50
2010,06,02,02,21,4.30
2010,06,02,02,22,4.10
2010,06,02,02,23,3.60
2010,06,02,02,24,0.20
2010,06,02,02,25,1.60
2010,06,02,02,26,2.20
2010,06,02,02,27,2.90
2010,06,02,02,28,2.40
2010,06,02,02,29,1.40
2010,06,02,02,30,2.80
2010,06,02,02,31,2.60
2010,06,02,02,32,2.70
2010,06,02,02,33,0.40
2010,06,02,02,34,3.90
2010,06,02,02,35,1.30
2010,06,02,02,36,1.40
2010,06,02,02,37,0.90
2010,06,02,02,38,0.20
2010,06,02,02,39,0.00
2010,06,02,02,40,0.10
2010,06,02,02,41,1.70
2010,06,02,02,42,3.30
2010,06,02,02,43,3.60
2010,06,02,02,44,1.90
2010,06,02,02,45,0.10
2010,06,02,02,46,2.10
2010,06,02,02,47,3.20
2010,06,02,02,48,1.90
2010,06,02,02,49,3.60
2010,06,02,02,50,1.20
2010,06,02,02,51,0.10
2010,06,02,02,52,0.30
2010,06,02,02,53,3.20
2010,06,02,02,54,2.50
2010,06,02,02,55,1.20
2010,06,02,02,56,2.00
2010,06,02,02,57,1.40
2010,06,02,02,58,1.40
2010,06,02,02,59,0.50
2010,06,02,03,00,0.60
2010,06,02,03,01,0.80
2010,06,02,03,02,0.60
2010,06,02,03,03,0.10
2010,06,02,03,04,0.10
2010,06,02,03,05,0.00
2010,06,02,03,06,0.30
2010,06,02,03,07,2.70
2010,06,02,03,08,3.00
2010,06,02,03,09,2.80
2010,06,02,03,10,2.50
2010,06,02,03,11,2.70
2010,06,02,03,12,3.80
2010,06,02,03,13,1.80
2010,06,02,03,14,4.00
2010,06,02,03,15,4.80
2010,06,02,03,16,1.50
2010,06,02,03,17,0.00
2010,06,02,03,18,0.00
2010,06,02,03,19,0.00
2010,06,02,03,20,0.00
2010,06,02,03,21,0.00
2010,06,02,03,22,0.00
2010,06,02,03,23,0.00
2010,06,02,03,24,0.00
2010,06,02,03,25,0.00
2010,06,02,03,26,0.20
2010,06,02,03,27,1.30
2010,06,02,03,28,0.90
2010,06,02,03,29,2.10
2010,06,02,03,30,0.70
2010,06,02,03,31,1.40
2010,06,02,03,32,0.20
2010,06,02,03,33,0.30
2010,06,02,03,34,0.00
2010,06,02,03,35,0.00
2010,06,02,03,36,1.20
2010,06,02,03,37,0.00
2010,06,02,03,38,1.80
2010,06,02,03,39,0.00
2010,06,02,03,40,0.00
2010,06,02,03,41,0.00
2010,06,02,03,42,0.00
2010,06,02,03,43,0.00
2010,06,02,03,44,0.00
2010,06,02,03,45,0.00
2010,06,02,03,46,0.00
2010,06,02,03,47,0.00
2010,06,02,03,48,0.00
2010,06,02,03,49,0.00
2010,06,02,03,50,0.00
2010,06,02,03,51,0.00
2010,06,02,03,52,0.00
2010,06,02,03,53,1.80
2010,06,02,03,54,0.90
2010,06,02,03,55,0.90
2010,06,02,03,56,3.50
2010,06,02,03,57,1.40
2010,06,02,03,58,0.10
2010,06,02,03,59,0.80
2010,06,02,04,00,0.30
2010,06,02,04,01,0.00
2010,06,02,04,02,0.90
2010,06,02,04,03,0.10
2010,06,02,04,04,1.90
2010,06,02,04,05,0.20
2010,06,02,04,06,0.10
2010,06,02,04,07,0.80
2010,06,02,04,08,1.10
2010,06,02,04,09,0.60
2010,06,02,04,10,1.70
2010,06,02,04,11,0.00
2010,06,02,04,12,1.10
2010,06,02,04,13,3.10
2010,06,02,04,14,0.70
2010,06,02,04,15,2.90
2010,06,02,04,16,0.90
2010,06,02,04,17,2.70
2010,06,02,04,18,4.30
2010,06,02,04,19,4.90
2010,06,02,04,20,5.20
2010,06,02,04,21,3.20
2010,06,02,04,22,2.30
2010,06,02,04,23,0.90
2010,06,02,04,24,4.00
2010,06,02,04,25,3.80
2010,06,02,04,26,2.40
2010,06,02,04,27,0.50
2010,06,02,04,28,2.10
2010,06,02,04,29,3.00
2010,06,02,04,30,2.30
2010,06,02,04,31,2.40
2010,06,02,04,32,2.70
2010,06,02,04,33,2.80
2010,06,02,04,34,0.00
2010,06,02,04,35,0.30
2010,06,02,04,36,1.80
2010,06,02,04,37,2.60
2010,06,02,04,38,2.00
2010,06,02,04,39,2.10
2010,06,02,04,40,2.40
2010,06,02,04,41,1.00
2010,06,02,04,42,1.10
2010,06,02,04,43,0.10
2010,06,02,04,44,0.80
2010,06,02,04,45,0.30
2010,06,02,04,46,0.20
2010,06,02,04,47,0.20
2010,06,02,04,48,0.20
2010,06,02,04,49,0.90
2010,06,02,04,50,1.40
2010,06,02,04,51,0.00
2010,06,02,04,52,2.80
2010,06,02,04,53,3.70
2010,06,02,04,54,3.50
2010,06,02,04,55,2.90
2010,06,02,04,56,4.10
2010,06,02,04,57,4.70
2010,06,02,04,58,4.60
2010,06,02,04,59,3.00
2010,06,02,05,00,2.60
2010,06,02,05,01,4.60
2010,06,02,05,02,4.20
2010,06,02,05,03,4.60
2010,06,02,05,04,4.10
2010,06,02,05,05,4.30
2010,06,02,05,06,4.10
2010,06,02,05,07,4.80
2010,06,02,05,08,6.00
2010,06,02,05,09,4.70
2010,06,02,05,10,3.00
2010,06,02,05,11,4.80
2010,06,02,05,12,7.20
2010,06,02,05,13,2.70
2010,06,02,05,14,6.40
2010,06,02,05,15,5.60
2010,06,02,05,16,7.70
2010,06,02,05,17,5.30
2010,06,02,05,18,4.20
2010,06,02,05,19,4.20
2010,06,02,05,20,1.60
2010,06,02,05,21,3.00
2010,06,02,05,22,3.50
2010,06,02,05,23,2.50
2010,06,02,05,24,3.50
2010,06,02,05,25,2.80
2010,06,02,05,26,5.50
2010,06,02,05,27,2.60
2010,06,02,05,28,3.20
2010,06,02,05,29,2.10
2010,06,02,05,30,5.20
2010,06,02,05,31,4.50
2010,06,02,05,32,3.10
2010,06,02,05,33,2.80
2010,06,02,05,34,2.20
2010,06,02,05,35,5.50
2010,06,02,05,36,5.90
2010,06,02,05,37,5.70
2010,06,02,05,38,5.20
2010,06,02,05,39,3.60
2010,06,02,05,40,3.00
2010,06,02,05,41,5.30
2010,06,02,05,42,4.30
2010,06,02,05,43,5.60
2010,06,02,05,44,5.60
2010,06,02,05,45,1.90
2010,06,02,05,46,3.20
2010,06,02,05,47,4.40
2010,06,02,05,48,2.40
2010,06,02,05,49,4.50
2010,06,02,05,50,3.70
2010,06,02,05,51,4.20
2010,06,02,05,52,2.00
2010,06,02,05,53,4.10
2010,06,02,05,54,4.70
2010,06,02,05,55,4.90
2010,06,02,05,56,3.90
2010,06,02,05,57,5.10
2010,06,02,05,58,5.50
2010,06,02,05,59,6.90
2010,06,02,06,00,6.20
2010,06,02,06,01,4.20
2010,06,02,06,02,6.00
2010,06,02,06,03,0.70
2010,06,02,06,04,1.90
2010,06,02,06,05,0.30
2010,06,02,06,06,0.10
2010,06,02,06,07,3.60
2010,06,02,06,08,4.70
2010,06,02,06,09,4.70
2010,06,02,06,10,6.00
2010,06,02,06,11,2.60
2010,06,02,06,12,2.60
2010,06,02,06,13,4.20
2010,06,02,06,14,4.10
2010,06,02,06,15,0.60
2010,06,02,06,16,0.60
2010,06,02,06,17,1.70
2010,06,02,06,18,2.10
2010,06,02,06,19,0.50
2010,06,02,06,20,2.60
2010,06,02,06,21,3.40
2010,06,02,06,22,3.10
2010,06,02,06,23,1.90
2010,06,02,06,24,3.50
2010,06,02,06,25,3.00
2010,06,02,06,26,3.40
2010,06,02,06,27,2.00
2010,06,02,06,28,5.30
2010,06,02,06,29,6.40
2010,06,02,06,30,4.40
2010,06,02,06,31,3.70
2010,06,02,06,32,4.50
2010,06,02,06,33,1.00
2010,06,02,06,34,1.60
2010,06,02,06,35,5.90
2010,06,02,06,36,4.00
2010,06,02,06,37,2.20
2010,06,02,06,38,2.80
2010,06,02,06,39,1.10
2010,06,02,06,40,0.40
2010,06,02,06,41,3.50
2010,06,02,06,42,3.60
2010,06,02,06,43,1.80
2010,06,02,06,44,2.10
2010,06,02,06,45,0.80
2010,06,02,06,46,2.60
2010,06,02,06,47,3.80
2010,06,02,06,48,3.40
2010,06,02,06,49,3.90
2010,06,02,06,50,1.60
2010,06,02,06,51,1.40
2010,06,02,06,52,1.90
2010,06,02,06,53,0.80
2010,06,02,06,54,0.40
2010,06,02,06,55,1.90
2010,06,02,06,56,3.40
2010,06,02,06,57,3.40
2010,06,02,06,58,1.10
2010,06,02,06,59,0.80
2010,06,02,07,00,1.00
2010,06,02,07,01,0.80
2010,06,02,07,02,0.80
2010,06,02,07,03,0.00
2010,06,02,07,04,0.00
2010,06,02,07,05,0.00
2010,06,02,07,06,0.00
2010,06,02,07,07,0.10
2010,06,02,07,08,0.20
2010,06,02,07,09,0.10
2010,06,02,07,10,0.10
2010,06,02,07,11,0.00
2010,06,02,07,12,0.00
2010,06,02,07,13,0.00
2010,06,02,07,14,0.80
2010,06,02,07,15,3.00
2010,06,02,07,16,2.90
2010,06,02,07,17,3.50
2010,06,02,07,18,4.10
2010,06,02,07,19,3.70
2010,06,02,07,20,0.40
2010,06,02,07,21,0.00
2010,06,02,07,22,0.00
2010,06,02,07,23,0.00
2010,06,02,07,24,0.30
2010,06,02,07,25,0.20
2010,06,02,07,26,0.00
2010,06,02,07,27,0.00
2010,06,02,07,28,0.00
2010,06,02,07,29,0.00
2010,06,02,07,30,0.00
2010,06,02,07,31,1.80
2010,06,02,07,32,1.50
2010,06,02,07,33,2.30
2010,06,02,07,34,1.30
2010,06,02,07,35,2.30
2010,06,02,07,36,2.40
2010,06,02,07,37,1.40
2010,06,02,07,38,0.50
2010,06,02,07,39,3.00
2010,06,02,07,40,6.60
2010,06,02,07,41,7.00
2010,06,02,07,42,4.00
2010,06,02,07,43,5.30
2010,06,02,07,44,4.70
2010,06,02,07,45,4.60
2010,06,02,07,46,3.30
2010,06,02,07,47,4.20
2010,06,02,07,48,4.80
2010,06,02,07,49,4.20
2010,06,02,07,50,0.40
2010,06,02,07,51,0.40
2010,06,02,07,52,1.10
2010,06,02,07,53,1.90
2010,06,02,07,54,2.00
2010,06,02,07,55,1.80
2010,06,02,07,56,3.30
2010,06,02,07,57,4.70
2010,06,02,07,58,2.50
2010,06,02,07,59,1.90
2010,06,02,08,00,1.40
2010,06,02,08,01,2.00
2010,06,02,08,02,4.20
2010,06,02,08,03,4.10
2010,06,02,08,04,5.30
2010,06,02,08,05,4.20
2010,06,02,08,06,2.80
2010,06,02,08,07,0.00
2010,06,02,08,08,0.00
2010,06,02,08,09,1.10
2010,06,02,08,10,1.40
2010,06,02,08,11,0.20
2010,06,02,08,12,0.00
2010,06,02,08,13,0.00
2010,06,02,08,14,0.00
2010,06,02,08,15,0.00
2010,06,02,08,16,0.00
2010,06,02,08,17,0.90
2010,06,02,08,18,0.40
2010,06,02,08,19,0.80
2010,06,02,08,20,0.10
2010,06,02,08,21,0.30
2010,06,02,08,22,0.20
2010,06,02,08,23,1.90
2010,06,02,08,24,0.00
2010,06,02,08,25,1.80
2010,06,02,08,26,1.50
2010,06,02,08,27,0.20
2010,06,02,08,28,0.50
2010,06,02,08,29,1.60
2010,06,02,08,30,3.40
2010,06,02,08,31,1.00
2010,06,02,08,32,0.20
2010,06,02,08,33,3.00
2010,06,02,08,34,3.50
2010,06,02,08,35,2.50
2010,06,02,08,36,2.70
2010,06,02,08,37,0.10
2010,06,02,08,38,2.10
2010,06,02,08,39,0.00
2010,06,02,08,40,0.90
2010,06,02,08,41,1.60
2010,06,02,08,42,3.60
2010,06,02,08,43,2.30
2010,06,02,08,44,3.40
2010,06,02,08,45,4.00
2010,06,02,08,46,0.60
2010,06,02,08,47,0.90
2010,06,02,08,48,0.00
2010,06,02,08,49,2.70
2010,06,02,08,50,1.40
2010,06,02,08,51,3.50
2010,06,02,08,52,1.00
2010,06,02,08,53,1.70
2010,06,02,08,54,1.90
2010,06,02,08,55,1.50
2010,06,02,08,56,1.30
2010,06,02,08,57,3.50
2010,06,02,08,58,6.70
2010,06,02,08,59,8.40
2010,06,02,09,00,4.70
2010,06,02,09,01,2.00
2010,06,02,09,02,1.60
2010,06,02,09,03,2.50
2010,06,02,09,04,4.50
2010,06,02,09,05,6.10
2010,06,02,09,06,2.40
2010,06,02,09,07,1.70
2010,06,02,09,08,0.10
2010,06,02,09,09,1.40
2010,06,02,09,10,3.00
2010,06,02,09,11,1.80
2010,06,02,09,12,2.00
2010,06,02,09,13,1.40
2010,06,02,09,14,0.60
2010,06,02,09,15,0.30
2010,06,02,09,16,1.90
2010,06,02,09,17,6.00
2010,06,02,09,18,7.10
2010,06,02,09,19,6.40
2010,06,02,09,20,3.50
2010,06,02,09,21,3.80
2010,06,02,09,22,5.80
2010,06,02,09,23,2.60
2010,06,02,09,24,4.20
2010,06,02,09,25,4.10
2010,06,02,09,26,4.80
2010,06,02,09,27,3.60
2010,06,02,09,28,1.80
2010,06,02,09,29,1.20
2010,06,02,09,30,3.40
2010,06,02,09,31,3.00
2010,06,02,09,32,0.20
2010,06,02,09,33,2.50
2010,06,02,09,34,1.20
2010,06,02,09,35,0.30
2010,06,02,09,36,2.40
2010,06,02,09,37,3.30
2010,06,02,09,38,0.10
2010,06,02,09,39,3.40
2010,06,02,09,40,0.80
2010,06,02,09,41,3.80
2010,06,02,09,42,3.50
2010,06,02,09,43,2.70
2010,06,02,09,44,0.30
2010,06,02,09,45,1.70
2010,06,02,09,46,0.20
2010,06,02,09,47,2.50
2010,06,02,09,48,1.40
2010,06,02,09,49,5.50
2010,06,02,09,50,4.20
2010,06,02,09,51,4.10
2010,06,02,09,52,3.70
2010,06,02,09,53,2.90
2010,06,02,09,54,1.50
2010,06,02,09,55,0.30
2010,06,02,09,56,1.40
2010,06,02,09,57,3.20
2010,06,02,09,58,0.50
2010,06,02,09,59,5.10
2010,06,02,10,00,0.80
2010,06,02,10,01,2.10
2010,06,02,10,02,1.90
2010,06,02,10,03,3.00
2010,06,02,10,04,1.40
2010,06,02,10,05,1.70
2010,06,02,10,06,0.00
2010,06,02,10,07,0.90
2010,06,02,10,08,3.00
2010,06,02,10,09,3.70
2010,06,02,10,10,3.00
2010,06,02,10,11,1.10
2010,06,02,10,12,4.40
2010,06,02,10,13,3.40
2010,06,02,10,14,3.40
2010,06,02,10,15,1.90
2010,06,02,10,16,1.20
2010,06,02,10,17,4.10
2010,06,02,10,18,1.40
2010,06,02,10,19,3.00
2010,06,02,10,20,2.20
2010,06,02,10,21,0.80
2010,06,02,10,22,1.70
2010,06,02,10,23,1.40
2010,06,02,10,24,0.20
2010,06,02,10,25,0.60
2010,06,02,10,26,0.90
2010,06,02,10,27,0.10
2010,06,02,10,28,0.10
2010,06,02,10,29,0.10
2010,06,02,10,30,0.60
2010,06,02,10,31,0.30
2010,06,02,10,32,0.10
2010,06,02,10,33,0.00
2010,06,02,10,34,0.40
2010,06,02,10,35,0.00
2010,06,02,10,36,0.30
2010,06,02,10,37,0.00
2010,06,02,10,38,0.60
2010,06,02,10,39,1.40
2010,06,02,10,40,5.10
2010,06,02,10,41,1.80
2010,06,02,10,42,0.50
2010,06,02,10,43,1.70
2010,06,02,10,44,2.50
2010,06,02,10,45,2.00
2010,06,02,10,46,2.10
2010,06,02,10,47,0.50
2010,06,02,10,48,0.30
2010,06,02,10,49,0.70
2010,06,02,10,50,0.10
2010,06,02,10,51,0.70
2010,06,02,10,52,0.80
2010,06,02,10,53,2.00
2010,06,02,10,54,3.20
2010,06,02,10,55,2.40
2010,06,02,10,56,0.50
2010,06,02,10,57,0.00
2010,06,02,10,58,1.20
2010,06,02,10,59,0.90
2010,06,02,11,00,0.10
2010,06,02,11,01,0.50
2010,06,02,11,02,2.80
2010,06,02,11,03,3.50
2010,06,02,11,04,2.80
2010,06,02,11,05,1.50
2010,06,02,11,06,0.40
2010,06,02,11,07,0.30
2010,06,02,11,08,0.20
2010,06,02,11,09,0.30
2010,06,02,11,10,0.90
2010,06,02,11,11,2.30
2010,06,02,11,12,2.90
2010,06,02,11,13,3.90
2010,06,02,11,14,3.10
2010,06,02,11,15,4.70
2010,06,02,11,16,4.70
2010,06,02,11,17,2.50
2010,06,02,11,18,2.20
2010,06,02,11,19,3.50
2010,06,02,11,20,2.90
2010,06,02,11,21,3.00
2010,06,02,11,22,3.10
2010,06,02,11,23,3.10
2010,06,02,11,24,2.80
2010,06,02,11,25,2.80
2010,06,02,11,26,4.10
2010,06,02,11,27,2.20
2010,06,02,11,28,3.00
2010,06,02,11,29,3.70
2010,06,02,11,30,3.20
2010,06,02,11,31,1.10
2010,06,02,11,32,3.40
2010,06,02,11,33,0.40
2010,06,02,11,34,1.30
2010,06,02,11,35,0.40
2010,06,02,11,36,0.90
2010,06,02,11,37,1.60
2010,06,02,11,38,0.80
2010,06,02,11,39,4.50
2010,06,02,11,40,3.90
2010,06,02,11,41,5.30
2010,06,02,11,42,6.10
2010,06,02,11,43,5.90
2010,06,02,11,44,6.40
2010,06,02,11,45,6.70
2010,06,02,11,46,5.30
2010,06,02,11,47,5.60
2010,06,02,11,48,4.10
2010,06,02,11,49,6.50
2010,06,02,11,50,5.30
2010,06,02,11,51,3.00
2010,06,02,11,52,3.40
2010,06,02,11,53,4.60
2010,06,02,11,54,3.00
2010,06,02,11,55,3.50
2010,06,02,11,56,5.00
2010,06,02,11,57,5.70
2010,06,02,11,58,5.90
2010,06,02,11,59,3.90
2010,06,02,12,00,7.00
2010,06,02,12,01,5.10
2010,06,02,12,02,8.60
2010,06,02,12,03,7.90
2010,06,02,12,04,3.30
2010,06,02,12,05,4.90
2010,06,02,12,06,6.70
2010,06,02,12,07,3.50
2010,06,02,12,08,5.30
2010,06,02,12,09,3.80
2010,06,02,12,10,3.80
2010,06,02,12,11,4.60
2010,06,02,12,12,4.40
2010,06,02,12,13,4.00
2010,06,02,12,14,3.00
2010,06,02,12,15,2.50
2010,06,02,12,16,2.20
2010,06,02,12,17,2.80
2010,06,02,12,18,1.90
2010,06,02,12,19,2.50
2010,06,02,12,20,1.70
2010,06,02,12,21,3.00
2010,06,02,12,22,4.10
2010,06,02,12,23,3.70
2010,06,02,12,24,3.40
2010,06,02,12,25,4.60
2010,06,02,12,26,1.80
2010,06,02,12,27,2.20
2010,06,02,12,28,2.20
2010,06,02,12,29,3.40
2010,06,02,12,30,1.20
2010,06,02,12,31,6.90
2010,06,02,12,32,4.70
2010,06,02,12,33,4.80
2010,06,02,12,34,5.30
2010,06,02,12,35,5.00
2010,06,02,12,36,4.50
2010,06,02,12,37,4.90
2010,06,02,12,38,7.00
2010,06,02,12,39,4.80
2010,06,02,12,40,6.20
2010,06,02,12,41,4.40
2010,06,02,12,42,4.30
2010,06,02,12,43,5.80
2010,06,02,12,44,4.30
2010,06,02,12,45,3.90
2010,06,02,12,46,3.10
2010,06,02,12,47,1.90
2010,06,02,12,48,4.90
2010,06,02,12,49,1.10
2010,06,02,12,50,5.30
2010,06,02,12,51,5.30
2010,06,02,12,52,4.70
2010,06,02,12,53,3.30
2010,06,02,12,54,1.80
2010,06,02,12,55,3.30
2010,06,02,12,56,5.50
2010,06,02,12,57,7.40
2010,06,02,12,58,9.70
2010,06,02,12,59,6.20
2010,06,02,13,00,3.30
2010,06,02,13,01,2.70
2010,06,02,13,02,10.40
2010,06,02,13,03,6.10
2010,06,02,13,04,4.70
2010,06,02,13,05,0.40
2010,06,02,13,06,8.00
2010,06,02,13,07,6.10
2010,06,02,13,08,7.40
2010,06,02,13,09,2.60
2010,06,02,13,10,5.60
2010,06,02,13,11,7.50
2010,06,02,13,12,8.60
2010,06,02,13,13,11.00
2010,06,02,13,14,9.60
2010,06,02,13,15,4.50
2010,06,02,13,16,8.20
2010,06,02,13,17,9.20
2010,06,02,13,18,13.80
2010,06,02,13,19,4.70
2010,06,02,13,20,7.20
2010,06,02,13,21,7.10
2010,06,02,13,22,4.70
2010,06,02,13,23,7.20
2010,06,02,13,24,12.20
2010,06,02,13,25,8.10
2010,06,02,13,26,9.80
2010,06,02,13,27,8.40
2010,06,02,13,28,12.80
2010,06,02,13,29,12.80
2010,06,02,13,30,5.30
2010,06,02,13,31,4.70
2010,06,02,13,32,5.60
2010,06,02,13,33,9.20
2010,06,02,13,34,8.80
2010,06,02,13,35,4.70
2010,06,02,13,36,7.20
2010,06,02,13,37,9.40
2010,06,02,13,38,10.10
2010,06,02,13,39,12.50
2010,06,02,13,40,11.90
2010,06,02,13,41,11.00
2010,06,02,13,42,8.60
2010,06,02,13,43,6.30
2010,06,02,13,44,9.00
2010,06,02,13,45,13.30
2010,06,02,13,46,14.90
2010,06,02,13,47,10.80
2010,06,02,13,48,15.00
2010,06,02,13,49,12.20
2010,06,02,13,50,6.40
2010,06,02,13,51,9.10
2010,06,02,13,52,8.90
2010,06,02,13,53,12.20
2010,06,02,13,54,8.50
2010,06,02,13,55,8.80
2010,06,02,13,56,11.00
2010,06,02,13,57,9.30
2010,06,02,13,58,11.70
2010,06,02,13,59,13.00
2010,06,02,14,00,13.20
2010,06,02,14,01,19.20
2010,06,02,14,02,15.10
2010,06,02,14,03,18.30
2010,06,02,14,04,19.10
2010,06,02,14,05,16.70
2010,06,02,14,06,14.40
2010,06,02,14,07,22.20
2010,06,02,14,08,17.40
2010,06,02,14,09,23.30
2010,06,02,14,10,17.90
2010,06,02,14,11,19.00
2010,06,02,14,12,23.70
2010,06,02,14,13,17.00
2010,06,02,14,14,11.90
2010,06,02,14,15,15.80
2010,06,02,14,16,17.50
2010,06,02,14,17,15.40
2010,06,02,14,18,21.30
2010,06,02,14,19,20.00
2010,06,02,14,20,14.10
2010,06,02,14,21,10.70
2010,06,02,14,22,15.40
2010,06,02,14,23,21.20
2010,06,02,14,24,16.90
2010,06,02,14,25,14.60
2010,06,02,14,26,17.40
2010,06,02,14,27,19.00
2010,06,02,14,28,16.80
2010,06,02,14,29,8.50
2010,06,02,14,30,9.20
2010,06,02,14,31,12.50
2010,06,02,14,32,15.40
2010,06,02,14,33,17.80
2010,06,02,14,34,15.40
2010,06,02,14,35,14.00
2010,06,02,14,36,15.70
2010,06,02,14,37,17.00
2010,06,02,14,38,20.40
2010,06,02,14,39,20.80
2010,06,02,14,40,18.60
2010,06,02,14,41,15.00
2010,06,02,14,42,14.50
2010,06,02,14,43,13.50
2010,06,02,14,44,21.70
2010,06,02,14,45,14.40
2010,06,02,14,46,10.50
2010,06,02,14,47,16.80
2010,06,02,14,48,19.10
2010,06,02,14,49,20.00
2010,06,02,14,50,16.70
2010,06,02,14,51,13.00
2010,06,02,14,52,13.40
2010,06,02,14,53,18.70
2010,06,02,14,54,14.80
2010,06,02,14,55,17.60
2010,06,02,14,56,20.20
2010,06,02,14,57,14.30
2010,06,02,14,58,24.20
2010,06,02,14,59,17.30
2010,06,02,15,00,20.30
2010,06,02,15,01,19.30
2010,06,02,15,02,16.50
2010,06,02,15,03,21.20
2010,06,02,15,04,18.90
2010,06,02,15,05,19.10
2010,06,02,15,06,23.50
2010,06,02,15,07,24.10
2010,06,02,15,08,24.40
2010,06,02,15,09,24.90
2010,06,02,15,10,20.20
2010,06,02,15,11,21.60
2010,06,02,15,12,22.80
2010,06,02,15,13,21.10
2010,06,02,15,14,19.90
2010,06,02,15,15,9.10
2010,06,02,15,16,16.50
2010,06,02,15,17,15.90
2010,06,02,15,18,22.40
2010,06,02,15,19,21.70
2010,06,02,15,20,15.90
2010,06,02,15,21,23.70
2010,06,02,15,22,11.10
2010,06,02,15,23,17.80
2010,06,02,15,24,22.50
2010,06,02,15,25,24.90
2010,06,02,15,26,21.70
2010,06,02,15,27,22.70
2010,06,02,15,28,19.50
2010,06,02,15,29,23.80
2010,06,02,15,30,21.70
2010,06,02,15,31,24.00
2010,06,02,15,32,20.60
2010,06,02,15,33,16.90
2010,06,02,15,34,13.70
2010,06,02,15,35,12.30
2010,06,02,15,36,9.80
2010,06,02,15,37,6.50
2010,06,02,15,38,26.00
2010,06,02,15,39,25.30
2010,06,02,15,40,21.70
2010,06,02,15,41,17.40
2010,06,02,15,42,14.40
2010,06,02,15,43,17.00
2010,06,02,15,44,19.90
2010,06,02,15,45,19.20
2010,06,02,15,46,20.20
2010,06,02,15,47,14.10
2010,06,02,15,48,17.50
2010,06,02,15,49,20.90
2010,06,02,15,50,18.80
2010,06,02,15,51,14.60
2010,06,02,15,52,14.10
2010,06,02,15,53,16.00
2010,06,02,15,54,20.80
2010,06,02,15,55,20.80
2010,06,02,15,56,22.50
2010,06,02,15,57,12.40
2010,06,02,15,58,13.40
2010,06,02,15,59,13.00
2010,06,02,16,00,14.80
2010,06,02,16,01,18.90
2010,06,02,16,02,14.50
2010,06,02,16,03,14.10
2010,06,02,16,04,25.10
2010,06,02,16,05,18.00
2010,06,02,16,06,13.00
2010,06,02,16,07,20.20
2010,06,02,16,08,16.00
2010,06,02,16,09,14.50
2010,06,02,16,10,25.70
2010,06,02,16,11,29.60
2010,06,02,16,12,29.20
2010,06,02,16,13,26.90
2010,06,02,16,14,24.10
2010,06,02,16,15,26.20
2010,06,02,16,16,20.20
2010,06,02,16,17,20.80
2010,06,02,16,18,17.50
2010,06,02,16,19,24.20
2010,06,02,16,20,24.50
2010,06,02,16,21,27.80
2010,06,02,16,22,14.10
2010,06,02,16,23,28.00
2010,06,02,16,24,26.10
2010,06,02,16,25,19.80
2010,06,02,16,26,27.70
2010,06,02,16,27,18.50
2010,06,02,16,28,11.40
2010,06,02,16,29,22.10
2010,06,02,16,30,13.90
2010,06,02,16,31,20.80
2010,06,02,16,32,22.70
2010,06,02,16,33,14.70
2010,06,02,16,34,19.20
2010,06,02,16,35,22.10
2010,06,02,16,36,24.20
2010,06,02,16,37,23.50
2010,06,02,16,38,25.20
2010,06,02,16,39,18.30
2010,06,02,16,40,29.80
2010,06,02,16,41,24.80
2010,06,02,16,42,26.00
2010,06,02,16,43,29.40
2010,06,02,16,44,27.90
2010,06,02,16,45,26.20
2010,06,02,16,46,27.70
2010,06,02,16,47,28.50
2010,06,02,16,48,14.60
2010,06,02,16,49,24.30
2010,06,02,16,50,19.40
2010,06,02,16,51,21.20
2010,06,02,16,52,20.80
2010,06,02,16,53,27.00
2010,06,02,16,54,26.80
2010,06,02,16,55,28.40
2010,06,02,16,56,18.90
2010,06,02,16,57,26.30
2010,06,02,16,58,22.00
2010,06,02,16,59,22.20
2010,06,02,17,00,29.90
2010,06,02,17,01,28.20
2010,06,02,17,02,26.30
2010,06,02,17,03,23.80
2010,06,02,17,04,21.90
2010,06,02,17,05,19.60
2010,06,02,17,06,20.60
2010,06,02,17,07,15.10
2010,06,02,17,08,14.20
2010,06,02,17,09,18.90
2010,06,02,17,10,27.80
2010,06,02,17,11,13.50
2010,06,02,17,12,22.50
2010,06,02,17,13,15.80
2010,06,02,17,14,15.00
2010,06,02,17,15,25.00
2010,06,02,17,16,25.30
2010,06,02,17,17,20.30
2010,06,02,17,18,30.90
2010,06,02,17,19,32.50
2010,06,02,17,20,29.20
2010,06,02,17,21,29.80
2010,06,02,17,22,28.50
2010,06,02,17,23,24.10
2010,06,02,17,24,30.90
2010,06,02,17,25,20.20
2010,06,02,17,26,21.50
2010,06,02,17,27,27.00
2010,06,02,17,28,28.30
2010,06,02,17,29,27.30
2010,06,02,17,30,28.50
2010,06,02,17,31,26.30
2010,06,02,17,32,32.70
2010,06,02,17,33,28.40
2010,06,02,17,34,25.10
2010,06,02,17,35,20.00
2010,06,02,17,36,24.10
2010,06,02,17,37,20.70
2010,06,02,17,38,21.00
2010,06,02,17,39,24.40
2010,06,02,17,40,27.20
2010,06,02,17,41,28.10
2010,06,02,17,42,35.70
2010,06,02,17,43,29.60
2010,06,02,17,44,26.40
2010,06,02,17,45,27.00
2010,06,02,17,46,24.10
2010,06,02,17,47,23.00
2010,06,02,17,48,28.70
2010,06,02,17,49,30.80
2010,06,02,17,50,19.70
2010,06,02,17,51,22.90
2010,06,02,17,52,23.00
2010,06,02,17,53,24.20
2010,06,02,17,54,24.80